Olympia, WA

8:03 PM PDT on July 22, 2017 (GMT -0700)
Olympia

Weather History for KOLM - October, 2012

Change the Weather History Date:

Monday, October 29, 2012

  Actual Average Record
Temperature  
Mean Temperature 55 °F 47 °F  
Max Temperature 61 °F 55 °F 68 °F (1962)
Min Temperature 49 °F 39 °F 21 °F (1971)
Degree Days  
Heating Degree Days 10 18  
Month to date heating degree days 414 418  
Since 1 July heating degree days 759 758  
Cooling Degree Days 0 0  
Month to date cooling degree days 0 0  
Year to date cooling degree days 82 106  
Growing Degree Days 4 (Base 50)    
Moisture  
Dew Point 53 °F    
Average Humidity 86    
Maximum Humidity 100    
Minimum Humidity 72    
Precipitation  
Precipitation 0.34 in 0.21 in 1.64 in (1955)
Month to date precipitation 5.46 4.15  
Year to date precipitation 38.09 33.46  
Sea Level Pressure  
Sea Level Pressure 29.89 in    
Wind  
Wind Speed 8 mph (SSW)    
Max Wind Speed 21 mph    
Max Gust Speed 29 mph    
Visibility 7 miles    
Events Rain    
T = Trace of Precipitation, MM = Missing Value Source: NWS Daily Summary

Daily Weather History Graph

Daily Weather History Graph

Search for Another Location

Airport or City:

Trip Planner

Search our weather history database for the weather conditions in past years. The results will help you decide how hot, cold, wet, or windy it might be!

Date:

Astronomy

Oct. 29, 2012 Rise Set
Actual Time 7:50 AM PDT 5:59 PM PDT
Civil Twilight 7:19 AM PDT 6:30 PM PDT
Nautical Twilight 6:43 AM PDT 7:06 PM PDT
Astronomical Twilight 6:07 AM PDT 7:41 PM PDT
Moon 5:51 PM PDT (10/29) 7:48 AM PDT (10/29)
Length of Visible Light 11h 11m
Length of Day
10h 08m
Full, 100% of the Moon is Illuminated
Oct 29
Full
Oct 29
Full
Nov 6
Last Quarter
Nov 13
New
Nov 20
First Quarter

Hourly Weather History & Observations

Time (PDT) Temp. Dew Point Humidity Pressure Visibility Wind Dir Wind Speed Gust Speed Precip Events Conditions
12:23 AM 51.8 °F 51.8 °F 100% 29.76 in 3.0 mi Calm Calm - 0.02 in Rain Light Rain
12:54 AM 52.0 °F 52.0 °F 100% 29.76 in 3.0 mi NNW 3.5 mph - 0.06 in Rain Rain
1:07 AM 51.8 °F 51.8 °F 100% 29.77 in 2.0 mi NW 8.1 mph - 0.05 in Rain Rain
1:27 AM 53.6 °F 53.6 °F 100% 29.76 in 1.8 mi North 3.5 mph - 0.12 in Rain Light Rain
1:54 AM 53.1 °F 53.1 °F 100% 29.77 in 2.0 mi Calm Calm - 0.22 in Rain Light Rain
2:02 AM 53.6 °F 53.6 °F 100% 29.77 in 1.8 mi SSE 3.5 mph - 0.02 in Rain Light Rain
2:17 AM 53.6 °F 53.6 °F 100% 29.77 in 1.8 mi South 3.5 mph - 0.05 in Rain Light Rain
2:22 AM 53.6 °F 53.6 °F 100% 29.76 in 2.0 mi Calm Calm - N/A Rain Rain
2:32 AM 53.6 °F 53.6 °F 100% 29.77 in 2.0 mi South 3.5 mph - 0.07 in Rain Light Rain
2:40 AM 53.6 °F 53.6 °F 100% 29.77 in 4.0 mi South 4.6 mph - 0.09 in Rain Light Rain
2:47 AM 53.6 °F 53.6 °F 100% 29.77 in 9.0 mi SSW 4.6 mph - N/A   Overcast
2:54 AM 54.0 °F 53.1 °F 97% 29.76 in 8.0 mi SSW 4.6 mph - 0.10 in   Overcast
3:20 AM 57.2 °F 55.4 °F 94% 29.76 in 10.0 mi South 10.4 mph - 0.00 in   Overcast
3:32 AM 57.2 °F 57.2 °F 100% 29.76 in 10.0 mi SSW 13.8 mph - 0.00 in   Overcast
3:54 AM 59.0 °F 57.0 °F 93% 29.76 in 10.0 mi South 11.5 mph - 0.00 in   Overcast
4:54 AM 59.0 °F 57.0 °F 93% 29.76 in 10.0 mi South 13.8 mph - N/A   Overcast
5:54 AM 59.0 °F 57.0 °F 93% 29.78 in 7.0 mi SSW 11.5 mph - 0.02 in Rain Light Rain
6:19 AM 59.0 °F 57.2 °F 94% 29.80 in 8.0 mi SSW 11.5 mph - N/A Rain Light Rain
6:54 AM 59.0 °F 57.0 °F 93% 29.81 in 10.0 mi South 10.4 mph - 0.00 in   Overcast
7:14 AM 59.0 °F 57.2 °F 94% 29.82 in 10.0 mi SSW 12.7 mph - N/A   Overcast
7:54 AM 59.0 °F 55.9 °F 90% 29.85 in 10.0 mi SSW 8.1 mph - 0.00 in   Overcast
8:54 AM 57.9 °F 55.0 °F 90% 29.89 in 9.0 mi SSW 12.7 mph 19.6 mph 0.00 in   Overcast
9:54 AM 57.9 °F 55.0 °F 90% 29.91 in 10.0 mi SW 13.8 mph 20.7 mph N/A   Mostly Cloudy
10:54 AM 59.0 °F 53.1 °F 81% 29.94 in 10.0 mi SW 17.3 mph 27.6 mph N/A   Overcast
11:54 AM 60.1 °F 52.0 °F 75% 29.97 in 10.0 mi SW 13.8 mph 25.3 mph N/A   Overcast
12:54 PM 60.8 °F 51.8 °F 72% 29.99 in 10.0 mi SW 9.2 mph 24.2 mph N/A   Mostly Cloudy
1:54 PM 60.1 °F 53.1 °F 78% 29.99 in 10.0 mi WSW 10.4 mph 17.3 mph N/A   Overcast
2:54 PM 61.0 °F 53.1 °F 75% 30.01 in 10.0 mi SSW 12.7 mph 18.4 mph N/A   Mostly Cloudy
3:54 PM 61.0 °F 53.1 °F 75% 30.02 in 10.0 mi SW 5.8 mph 16.1 mph N/A   Overcast
4:54 PM 59.0 °F 53.1 °F 81% 30.03 in 10.0 mi SW 5.8 mph - N/A   Overcast
5:54 PM 57.0 °F 53.1 °F 87% 30.02 in 10.0 mi WSW 4.6 mph - 0.00 in   Mostly Cloudy
5:56 PM 55.4 °F 53.6 °F 94% 30.02 in 10.0 mi WSW 4.6 mph - N/A   Mostly Cloudy
6:54 PM 55.0 °F 53.1 °F 93% 30.02 in 10.0 mi Calm Calm - N/A   Mostly Cloudy
7:54 PM 51.1 °F 51.1 °F 100% 30.02 in 7.0 mi South 5.8 mph - N/A   Partly Cloudy
8:54 PM 52.0 °F 51.1 °F 97% 29.99 in 10.0 mi South 3.5 mph - N/A   Clear
9:47 PM 50.0 °F 50.0 °F 100% 29.99 in 1.8 mi SSW 3.5 mph - N/A   Partly Cloudy
9:52 PM 48.2 °F 48.2 °F 100% 29.99 in 0.8 mi WSW 3.5 mph - N/A   Clear
9:54 PM 48.9 °F 48.9 °F 100% 29.99 in 0.8 mi Calm Calm - N/A   Clear
10:04 PM 50.0 °F 50.0 °F 100% 29.99 in 1.5 mi Calm Calm - N/A   Partly Cloudy
10:06 PM 50.0 °F 50.0 °F 100% 29.99 in 3.0 mi Calm Calm - N/A   Scattered Clouds
10:54 PM 48.9 °F 48.9 °F 100% 29.99 in 4.0 mi Calm Calm - N/A   Partly Cloudy
11:24 PM 51.8 °F 51.8 °F 100% 29.97 in 8.0 mi Calm Calm - N/A   Mostly Cloudy
11:44 PM 50.0 °F 50.0 °F 100% 29.97 in 8.0 mi South 3.5 mph - N/A   Mostly Cloudy
11:54 PM 51.1 °F 50.0 °F 96% 29.97 in 7.0 mi SSW 3.5 mph - N/A   Mostly Cloudy